TimeCST,TemperatureF,Dew PointF,Humidity,Sea Level PressureIn,VisibilityMPH,Wind Direction,Wind SpeedMPH,Gust SpeedMPH,PrecipitationIn,Events,Conditions,WindDirDegrees,DateUTC
12:15 AM,-0.4,-5.8,78,30.05,10.0,Calm,Calm,-,N/A,,Clear,0,2013-03-04 06:15:00
12:55 AM,-4.0,-7.6,85,30.07,10.0,Calm,Calm,-,N/A,,Scattered Clouds,0,2013-03-04 06:55:00
1:15 AM,-2.2,-5.8,85,30.07,10.0,Calm,Calm,-,N/A,,Clear,0,2013-03-04 07:15:00
1:35 AM,-4.0,-7.6,85,30.08,10.0,Calm,Calm,-,N/A,,Clear,0,2013-03-04 07:35:00
1:55 AM,-4.0,-7.6,85,30.08,10.0,Calm,Calm,-,N/A,,Clear,0,2013-03-04 07:55:00
2:15 AM,-4.0,-7.6,85,30.08,10.0,Calm,Calm,-,N/A,,Clear,0,2013-03-04 08:15:00
2:35 AM,-4.0,-7.6,85,30.08,10.0,Calm,Calm,-,N/A,,Clear,0,2013-03-04 08:35:00
2:55 AM,-5.8,-9.4,84,30.08,10.0,Calm,Calm,-,N/A,,Clear,0,2013-03-04 08:55:00
3:15 AM,-4.0,-7.6,85,30.08,10.0,Calm,Calm,-,N/A,,Clear,0,2013-03-04 09:15:00
3:35 AM,-5.8,-9.4,84,30.08,10.0,Calm,Calm,-,N/A,,Clear,0,2013-03-04 09:35:00
3:55 AM,-5.8,-9.4,84,30.08,10.0,Calm,Calm,-,N/A,,Clear,0,2013-03-04 09:55:00
4:15 AM,-5.8,-9.4,84,30.08,10.0,Calm,Calm,-,N/A,,Clear,0,2013-03-04 10:15:00
4:35 AM,-7.6,-13.0,77,30.08,10.0,Calm,Calm,-,N/A,,Clear,0,2013-03-04 10:35:00
4:55 AM,-7.6,-13.0,77,30.08,10.0,Calm,Calm,-,N/A,,Clear,0,2013-03-04 10:55:00
5:15 AM,-7.6,-13.0,77,30.08,10.0,Calm,Calm,-,N/A,,Clear,0,2013-03-04 11:15:00
5:35 AM,-7.6,-13.0,77,30.08,10.0,Calm,Calm,-,N/A,,Clear,0,2013-03-04 11:35:00
5:55 AM,-7.6,-13.0,77,30.08,10.0,Calm,Calm,-,N/A,,Clear,0,2013-03-04 11:55:00
6:15 AM,-7.6,-13.0,77,30.08,10.0,Calm,Calm,-,N/A,,Clear,0,2013-03-04 12:15:00
6:35 AM,-7.6,-13.0,77,30.09,10.0,Calm,Calm,-,N/A,,Clear,0,2013-03-04 12:35:00
6:55 AM,-7.6,-11.2,84,30.09,10.0,Calm,Calm,-,N/A,,Clear,0,2013-03-04 12:55:00
7:15 AM,-5.8,-9.4,84,30.09,10.0,Calm,Calm,-,N/A,,Clear,0,2013-03-04 13:15:00
7:35 AM,-0.4,-5.8,78,30.09,10.0,Calm,Calm,-,N/A,,Clear,0,2013-03-04 13:35:00
7:55 AM,3.2,-0.4,85,30.09,10.0,Calm,Calm,-,N/A,,Clear,0,2013-03-04 13:55:00
8:15 AM,6.8,3.2,85,30.09,10.0,Calm,Calm,-,N/A,,Clear,0,2013-03-04 14:15:00
8:35 AM,14.0,10.4,86,30.09,10.0,Calm,Calm,-,N/A,,Clear,0,2013-03-04 14:35:00
8:55 AM,19.4,14.0,80,30.10,10.0,ESE,3.5,-,N/A,,Clear,120,2013-03-04 14:55:00
9:15 AM,21.2,14.0,74,30.10,10.0,ESE,3.5,-,N/A,,Clear,120,2013-03-04 15:15:00
9:35 AM,21.2,14.0,74,30.10,10.0,SE,5.8,-,N/A,,Clear,130,2013-03-04 15:35:00
9:55 AM,23.0,14.0,68,30.09,10.0,ESE,5.8,-,N/A,,Clear,110,2013-03-04 15:55:00
10:15 AM,23.0,14.0,68,30.09,10.0,East,9.2,-,N/A,,Clear,90,2013-03-04 16:15:00
10:35 AM,23.0,14.0,68,30.09,10.0,East,6.9,-,N/A,,Clear,100,2013-03-04 16:35:00
10:55 AM,26.6,14.0,59,30.08,10.0,East,9.2,-,N/A,,Clear,100,2013-03-04 16:55:00
11:15 AM,26.6,14.0,59,30.08,10.0,ESE,5.8,-,N/A,,Clear,110,2013-03-04 17:15:00
11:35 AM,26.6,12.2,55,30.07,10.0,ESE,6.9,-,N/A,,Clear,120,2013-03-04 17:35:00
11:55 AM,28.4,12.2,51,30.06,10.0,East,6.9,-,N/A,,Clear,100,2013-03-04 17:55:00
12:15 PM,28.4,12.2,51,30.06,10.0,ESE,9.2,-,N/A,,Clear,110,2013-03-04 18:15:00
12:55 PM,30.2,10.4,44,30.04,10.0,SE,10.4,-,N/A,,Clear,130,2013-03-04 18:55:00
1:15 PM,30.2,10.4,44,30.04,10.0,ESE,9.2,-,N/A,,Clear,110,2013-03-04 19:15:00
1:35 PM,30.2,8.6,40,30.03,10.0,ESE,8.1,-,N/A,,Clear,110,2013-03-04 19:35:00
1:55 PM,30.2,8.6,40,30.03,10.0,East,6.9,-,N/A,,Clear,100,2013-03-04 19:55:00
2:15 PM,30.2,8.6,40,30.03,10.0,East,9.2,-,N/A,,Clear,90,2013-03-04 20:15:00
2:35 PM,32.0,8.6,38,30.03,10.0,ESE,6.9,-,N/A,,Clear,120,2013-03-04 20:35:00
2:55 PM,32.0,8.6,38,30.02,10.0,East,6.9,-,N/A,,Clear,90,2013-03-04 20:55:00
3:35 PM,32.0,6.8,35,30.03,10.0,ESE,9.2,-,N/A,,Clear,110,2013-03-04 21:35:00
3:55 PM,30.2,8.6,40,30.03,10.0,East,10.4,-,N/A,,Clear,100,2013-03-04 21:55:00
4:15 PM,30.2,8.6,40,30.03,10.0,ESE,5.8,-,N/A,,Scattered Clouds,120,2013-03-04 22:15:00
4:35 PM,30.2,10.4,44,30.03,10.0,East,4.6,-,N/A,,Overcast,100,2013-03-04 22:35:00
4:55 PM,30.2,10.4,44,30.03,10.0,East,5.8,-,N/A,,Overcast,90,2013-03-04 22:55:00
5:15 PM,30.2,10.4,44,30.04,10.0,East,5.8,-,N/A,,Overcast,100,2013-03-04 23:15:00
5:35 PM,30.2,10.4,44,30.04,10.0,East,6.9,-,N/A,,Overcast,100,2013-03-04 23:35:00
5:55 PM,30.2,10.4,44,30.05,10.0,East,5.8,-,N/A,,Overcast,100,2013-03-04 23:55:00
6:15 PM,30.2,12.2,47,30.05,10.0,ESE,5.8,-,N/A,,Overcast,110,2013-03-05 00:15:00
6:35 PM,30.2,12.2,47,30.05,10.0,ESE,5.8,-,N/A,,Overcast,110,2013-03-05 00:35:00
6:55 PM,30.2,12.2,47,30.06,10.0,East,5.8,-,N/A,,Overcast,100,2013-03-05 00:55:00
7:15 PM,30.2,12.2,47,30.05,10.0,East,3.5,-,N/A,,Overcast,100,2013-03-05 01:15:00
7:35 PM,28.4,14.0,55,30.06,10.0,East,4.6,-,N/A,,Overcast,90,2013-03-05 01:35:00
7:55 PM,28.4,14.0,55,30.06,10.0,East,9.2,-,N/A,,Overcast,90,2013-03-05 01:55:00
8:35 PM,26.6,14.0,59,30.06,10.0,East,6.9,-,N/A,,Overcast,100,2013-03-05 02:35:00
8:55 PM,26.6,12.2,55,30.06,10.0,East,8.1,-,N/A,,Overcast,100,2013-03-05 02:55:00
9:15 PM,24.8,12.2,59,30.07,10.0,East,9.2,-,N/A,,Scattered Clouds,100,2013-03-05 03:15:00
9:35 PM,23.0,10.4,59,30.07,10.0,East,6.9,-,N/A,,Scattered Clouds,100,2013-03-05 03:35:00
9:55 PM,23.0,10.4,59,30.06,10.0,East,8.1,-,N/A,,Overcast,80,2013-03-05 03:55:00
10:15 PM,23.0,8.6,54,30.06,10.0,East,5.8,-,N/A,,Overcast,80,2013-03-05 04:15:00
10:35 PM,23.0,6.8,50,30.07,10.0,East,10.4,-,N/A,,Overcast,100,2013-03-05 04:35:00
10:55 PM,23.0,6.8,50,30.08,10.0,ESE,8.1,-,N/A,,Overcast,110,2013-03-05 04:55:00
11:15 PM,21.2,8.6,58,30.08,10.0,East,9.2,-,N/A,,Overcast,100,2013-03-05 05:15:00
11:35 PM,21.2,10.4,63,30.08,10.0,East,10.4,-,N/A,,Overcast,100,2013-03-05 05:35:00
11:55 PM,21.2,12.2,68,30.09,10.0,East,8.1,-,N/A,,Overcast,100,2013-03-05 05:55:00